Location: Dalton
(34.7700°N, 84.9700°W)
Time: 09:05:49
(UTC-04:00)

O/OREOS (USA 219) - Visible Passes

Search period start: 21 May 2018 00:00
Search period end: 31 May 2018 00:00
Orbit: 621 x 646 km, 72.0° (Epoch: 22 May)

Date Brightness Start Highest point End Pass type
(mag) Time Alt. Az. Time Alt. Az. Time Alt. Az.
21 May ? 00:20:15 22° NNE 00:20:15 22° NNE 00:21:53 10° NNE visible
22 May ? 00:41:20 28° NNW 00:41:20 28° NNW 00:43:47 10° N visible
22 May ? 23:24:58 18° NE 23:24:58 18° NE 23:26:18 10° NE visible
23 May ? 01:02:21 19° NW 01:02:21 19° NW 01:05:02 10° NNW visible
23 May ? 23:45:53 37° NNE 23:45:53 37° NNE 23:48:42 10° NNE visible
24 May ? 22:29:20 12° ENE 22:29:20 12° ENE 22:29:56 10° ENE visible
25 May ? 00:06:42 38° NW 00:06:42 38° NW 00:10:32 10° N visible
25 May ? 22:49:59 33° ENE 22:49:59 33° ENE 22:53:12 10° NE visible
26 May ? 00:27:22 17° WNW 00:28:28 18° WNW 00:31:39 10° NNW visible
26 May ? 23:10:28 73° SSW 23:10:54 86° WNW 23:15:31 10° NNE visible
27 May ? 21:53:20 17° ESE 21:53:56 18° E 21:57:02 10° ENE visible
27 May ? 23:30:40 22° WSW 23:33:01 35° WNW 23:37:16 10° N visible
28 May ? 22:13:10 22° SSE 22:15:44 43° ESE 22:20:06 10° NE visible
28 May ? 23:52:27 10° W 23:55:21 16° WNW 23:58:14 10° NNW visible
29 May ? 22:33:07 10° SSW 22:37:42 77° WNW 22:42:20 10° NNE visible
30 May ? 21:17:21 10° SSE 21:20:42 20° E 21:24:04 10° NE visible
30 May ? 22:55:45 10° SW 22:59:51 32° WNW 23:03:59 10° N visible
